Time,TemperatureF,DewpointF,PressureIn,WindDirection,WindDirectionDegrees,WindSpeedMPH,WindSpeedGustMPH,Humidity,HourlyPrecipIn,Conditions,Clouds,dailyrainin,SoftwareType,DateUTC
2013-04-06 00:01:00,38.1,-0.6,30.07,ESE,112,3.6,5.1,19,0.00,,,0.00,WUHU21623XXSP,2013-04-06 05:01:00,
2013-04-06 00:06:00,37.9,-0.8,30.06,ESE,112,2.7,3.6,19,0.00,,,0.00,WUHU21623XXSP,2013-04-06 05:06:00,
2013-04-06 00:11:00,38.1,-0.6,30.05,East,90,4.7,7.2,19,0.00,,,0.00,WUHU21623XXSP,2013-04-06 05:11:00,
2013-04-06 00:16:00,37.9,-0.8,30.06,East,90,6.0,7.2,19,0.00,,,0.00,WUHU21623XXSP,2013-04-06 05:16:00,
2013-04-06 00:21:00,38.1,-0.6,30.06,East,90,4.0,6.0,19,0.00,,,0.00,WUHU21623XXSP,2013-04-06 05:21:00,
2013-04-06 00:26:00,37.9,-0.8,30.06,ESE,112,3.1,4.7,19,0.00,,,0.00,WUHU21623XXSP,2013-04-06 05:26:00,
2013-04-06 00:31:00,37.9,-0.8,30.04,ESE,112,1.8,6.0,19,0.00,,,0.00,WUHU21623XXSP,2013-04-06 05:31:00,
2013-04-06 00:36:00,37.8,-0.8,30.03,SE,135,4.9,6.0,19,0.00,,,0.00,WUHU21623XXSP,2013-04-06 05:36:00,
2013-04-06 00:41:00,37.8,-0.8,30.03,ESE,112,2.7,4.9,19,0.00,,,0.00,WUHU21623XXSP,2013-04-06 05:41:00,
2013-04-06 00:47:00,37.6,-1.0,30.04,East,90,2.0,5.1,19,0.00,,,0.00,WUHU21623XXSP,2013-04-06 05:47:00,
2013-04-06 00:52:00,37.6,-1.0,30.04,ESE,112,2.2,5.1,19,0.00,,,0.00,WUHU21623XXSP,2013-04-06 05:52:00,
2013-04-06 00:57:00,37.8,-0.8,30.03,ESE,112,5.6,5.6,19,0.00,,,0.00,WUHU21623XXSP,2013-04-06 05:57:00,
2013-04-06 01:02:00,37.8,-0.8,30.04,ESE,112,5.1,5.6,19,0.00,,,0.00,WUHU21623XXSP,2013-04-06 06:02:00,
2013-04-06 01:07:00,37.6,-1.0,30.03,SE,135,4.5,5.1,19,0.00,,,0.00,WUHU21623XXSP,2013-04-06 06:07:00,
2013-04-06 01:12:00,37.6,-1.0,30.03,East,90,2.7,5.4,19,0.00,,,0.00,WUHU21623XXSP,2013-04-06 06:12:00,
2013-04-06 01:17:00,37.6,-1.0,30.03,SE,135,2.0,5.4,19,0.00,,,0.00,WUHU21623XXSP,2013-04-06 06:17:00,
2013-04-06 01:22:00,37.4,-1.2,30.02,ESE,112,0.0,6.7,19,0.00,,,0.00,WUHU21623XXSP,2013-04-06 06:22:00,
2013-04-06 01:27:00,37.2,-1.3,30.03,ESE,112,3.1,6.7,19,0.00,,,0.00,WUHU21623XXSP,2013-04-06 06:27:00,
2013-04-06 01:32:00,37.4,-1.2,30.03,SE,135,4.7,5.6,19,0.00,,,0.00,WUHU21623XXSP,2013-04-06 06:32:00,
2013-04-06 01:37:00,37.4,-1.2,30.03,ESE,112,0.0,5.6,19,0.00,,,0.00,WUHU21623XXSP,2013-04-06 06:37:00,
2013-04-06 01:42:00,37.2,-1.3,30.03,ESE,112,0.0,2.7,19,0.00,,,0.00,WUHU21623XXSP,2013-04-06 06:42:00,
2013-04-06 01:47:00,37.0,-1.5,30.03,NE,45,0.0,0.9,19,0.00,,,0.00,WUHU21623XXSP,2013-04-06 06:47:00,
2013-04-06 01:52:00,37.2,-1.3,30.03,ESE,112,3.6,3.6,19,0.00,,,0.00,WUHU21623XXSP,2013-04-06 06:52:00,
2013-04-06 01:57:00,37.0,-1.5,30.02,SE,135,1.1,3.6,19,0.00,,,0.00,WUHU21623XXSP,2013-04-06 06:57:00,
2013-04-06 02:02:00,37.0,-1.5,30.02,SE,135,5.4,5.4,19,0.00,,,0.00,WUHU21623XXSP,2013-04-06 07:02:00,
2013-04-06 02:07:00,36.9,-1.6,30.02,ESE,112,5.8,5.8,19,0.00,,,0.00,WUHU21623XXSP,2013-04-06 07:07:00,
2013-04-06 02:12:00,36.9,-1.6,30.01,SSE,157,1.6,5.8,19,0.00,,,0.00,WUHU21623XXSP,2013-04-06 07:12:00,
2013-04-06 02:17:00,36.7,-1.8,30.02,ENE,67,1.1,3.6,19,0.00,,,0.00,WUHU21623XXSP,2013-04-06 07:17:00,
2013-04-06 02:22:00,36.5,-1.9,30.02,SE,135,4.3,4.3,19,0.00,,,0.00,WUHU21623XXSP,2013-04-06 07:22:00,
2013-04-06 02:27:00,36.5,-1.9,30.01,East,90,4.0,4.3,19,0.00,,,0.00,WUHU21623XXSP,2013-04-06 07:27:00,
2013-04-06 02:32:00,36.3,-2.1,30.01,SE,135,3.8,4.0,19,0.00,,,0.00,WUHU21623XXSP,2013-04-06 07:32:00,
2013-04-06 02:37:00,36.3,-0.9,30.01,SSE,157,5.8,5.8,20,0.00,,,0.00,WUHU21623XXSP,2013-04-06 07:37:00,
2013-04-06 02:42:00,36.3,-0.9,30.01,East,90,2.0,5.8,20,0.00,,,0.00,WUHU21623XXSP,2013-04-06 07:42:00,
2013-04-06 02:47:00,36.3,1.7,30.00,SSE,157,3.1,5.8,23,0.00,,,0.00,WUHU21623XXSP,2013-04-06 07:47:00,
2013-04-06 02:52:00,36.1,4.2,30.00,SSE,157,4.5,4.5,26,0.00,,,0.00,WUHU21623XXSP,2013-04-06 07:52:00,
2013-04-06 02:57:00,36.1,5.9,30.00,SE,135,1.8,4.5,28,0.00,,,0.00,WUHU21623XXSP,2013-04-06 07:57:00,
2013-04-06 03:02:00,36.0,8.1,29.99,ESE,112,3.8,6.0,31,0.00,,,0.00,WUHU21623XXSP,2013-04-06 08:02:00,
2013-04-06 03:07:00,36.0,8.8,29.99,SE,135,6.7,12.3,32,0.00,,,0.00,WUHU21623XXSP,2013-04-06 08:07:00,
2013-04-06 03:12:00,36.0,10.7,29.99,ESE,112,2.9,12.3,35,0.00,,,0.00,WUHU21623XXSP,2013-04-06 08:12:00,
2013-04-06 03:17:00,35.8,10.6,29.99,ENE,67,0.9,4.5,36,0.00,,,0.00,WUHU21623XXSP,2013-04-06 08:17:00,
2013-04-06 03:22:00,35.8,11.9,30.00,ESE,112,2.7,2.7,37,0.00,,,0.00,WUHU21623XXSP,2013-04-06 08:22:00,
2013-04-06 03:27:00,35.8,12.5,30.00,SE,135,2.2,7.8,38,0.00,,,0.00,WUHU21623XXSP,2013-04-06 08:27:00,
2013-04-06 03:32:00,35.8,12.5,30.00,SE,135,5.1,7.8,38,0.00,,,0.00,WUHU21623XXSP,2013-04-06 08:32:00,
2013-04-06 03:37:00,35.6,13.0,30.00,SE,135,1.3,5.4,39,0.00,,,0.00,WUHU21623XXSP,2013-04-06 08:37:00,
2013-04-06 03:42:00,35.8,13.8,30.00,SE,135,3.8,6.7,40,0.00,,,0.00,WUHU21623XXSP,2013-04-06 08:42:00,
2013-04-06 03:47:00,35.4,13.5,29.99,SE,135,10.3,10.3,40,0.00,,,0.00,WUHU21623XXSP,2013-04-06 08:47:00,
2013-04-06 03:52:00,35.6,14.2,29.99,ESE,112,1.3,10.3,41,0.00,,,0.00,WUHU21623XXSP,2013-04-06 08:52:00,
2013-04-06 03:57:00,35.4,14.0,29.99,SE,135,6.9,7.6,41,0.00,,,0.00,WUHU21623XXSP,2013-04-06 08:57:00,
2013-04-06 04:02:00,35.6,14.7,29.99,SE,135,4.9,6.9,42,0.00,,,0.00,WUHU21623XXSP,2013-04-06 09:02:00,
2013-04-06 04:08:00,35.6,14.7,29.99,SE,135,6.9,6.9,42,0.00,,,0.00,WUHU21623XXSP,2013-04-06 09:08:00,
2013-04-06 04:13:00,35.4,14.5,29.98,SE,135,2.2,6.9,42,0.00,,,0.00,WUHU21623XXSP,2013-04-06 09:13:00,
2013-04-06 04:18:00,35.2,14.9,29.99,SE,135,2.5,8.5,43,0.00,,,0.00,WUHU21623XXSP,2013-04-06 09:18:00,
2013-04-06 04:23:00,35.2,15.4,29.99,SE,135,2.9,8.5,44,0.00,,,0.00,WUHU21623XXSP,2013-04-06 09:23:00,
2013-04-06 04:28:00,35.2,15.4,29.99,ESE,112,1.1,2.9,44,0.00,,,0.00,WUHU21623XXSP,2013-04-06 09:28:00,
2013-04-06 04:33:00,35.2,15.4,29.99,ESE,112,0.9,3.4,44,0.00,,,0.00,WUHU21623XXSP,2013-04-06 09:33:00,
2013-04-06 04:38:00,35.2,15.9,29.99,ESE,112,3.8,3.8,45,0.00,,,0.00,WUHU21623XXSP,2013-04-06 09:38:00,
2013-04-06 04:43:00,35.2,15.9,29.99,ESE,112,0.4,4.3,45,0.00,,,0.00,WUHU21623XXSP,2013-04-06 09:43:00,
2013-04-06 04:48:00,35.2,15.9,29.98,SE,135,6.3,6.3,45,0.00,,,0.00,WUHU21623XXSP,2013-04-06 09:48:00,
2013-04-06 04:53:00,35.2,16.4,29.98,SE,135,4.5,6.3,46,0.00,,,0.00,WUHU21623XXSP,2013-04-06 09:53:00,
2013-04-06 04:58:00,35.1,16.3,29.97,SE,135,4.3,5.4,46,0.00,,,0.00,WUHU21623XXSP,2013-04-06 09:58:00,
2013-04-06 05:03:00,35.1,16.3,29.97,East,90,4.3,4.9,46,0.00,,,0.00,WUHU21623XXSP,2013-04-06 10:03:00,
2013-04-06 05:08:00,35.1,16.8,29.97,East,90,5.4,5.4,47,0.00,,,0.00,WUHU21623XXSP,2013-04-06 10:08:00,
2013-04-06 05:13:00,35.1,16.8,29.97,ESE,112,1.6,6.7,47,0.00,,,0.00,WUHU21623XXSP,2013-04-06 10:13:00,
2013-04-06 05:18:00,34.9,16.6,29.96,ESE,112,1.6,6.7,47,0.00,,,0.00,WUHU21623XXSP,2013-04-06 10:18:00,
2013-04-06 05:23:00,35.1,16.8,29.97,ESE,112,0.0,5.4,47,0.00,,,0.00,WUHU21623XXSP,2013-04-06 10:23:00,
2013-04-06 05:28:00,35.1,16.8,29.97,East,90,3.8,5.4,47,0.00,,,0.00,WUHU21623XXSP,2013-04-06 10:28:00,
2013-04-06 05:33:00,35.1,16.8,29.96,ESE,112,5.6,5.6,47,0.00,,,0.00,WUHU21623XXSP,2013-04-06 10:33:00,
2013-04-06 05:38:00,35.1,17.3,29.96,South,180,5.6,5.6,48,0.00,,,0.00,WUHU21623XXSP,2013-04-06 10:38:00,
2013-04-06 05:43:00,34.9,17.1,29.96,ESE,112,3.1,5.6,48,0.00,,,0.00,WUHU21623XXSP,2013-04-06 10:43:00,
2013-04-06 05:48:00,34.9,17.1,29.96,SE,135,7.2,7.2,48,0.00,,,0.00,WUHU21623XXSP,2013-04-06 10:48:00,
2013-04-06 05:53:00,35.1,17.8,29.95,SE,135,6.7,8.3,49,0.00,,,0.00,WUHU21623XXSP,2013-04-06 10:53:00,
2013-04-06 05:58:00,34.9,17.6,29.95,SE,135,4.9,8.3,49,0.00,,,0.00,WUHU21623XXSP,2013-04-06 10:58:00,
2013-04-06 06:03:00,34.9,17.6,29.96,SE,135,6.5,6.5,49,0.00,,,0.00,WUHU21623XXSP,2013-04-06 11:03:00,
2013-04-06 06:08:00,34.9,18.1,29.94,SE,135,2.7,6.5,50,0.00,,,0.00,WUHU21623XXSP,2013-04-06 11:08:00,
2013-04-06 06:13:00,34.7,18.0,29.94,SE,135,7.2,7.2,50,0.00,,,0.00,WUHU21623XXSP,2013-04-06 11:13:00,
2013-04-06 06:18:00,34.9,18.1,29.94,SE,135,4.3,7.2,50,0.00,,,0.00,WUHU21623XXSP,2013-04-06 11:18:00,
2013-04-06 06:23:00,35.1,18.3,29.94,SE,135,3.8,6.3,50,0.00,,,0.00,WUHU21623XXSP,2013-04-06 11:23:00,
2013-04-06 06:28:00,35.1,18.3,29.93,SSE,157,9.2,9.2,50,0.00,,,0.00,WUHU21623XXSP,2013-04-06 11:28:00,
2013-04-06 06:33:00,35.1,18.8,29.93,SSE,157,4.0,9.2,51,0.00,,,0.00,WUHU21623XXSP,2013-04-06 11:33:00,
2013-04-06 06:38:00,35.1,18.8,29.93,SE,135,12.3,12.3,51,0.00,,,0.00,WUHU21623XXSP,2013-04-06 11:38:00,
2013-04-06 06:43:00,35.2,18.9,29.92,SSE,157,5.6,12.3,51,0.00,,,0.00,WUHU21623XXSP,2013-04-06 11:43:00,
2013-04-06 06:48:00,35.2,18.9,29.92,ESE,112,1.6,6.3,51,0.00,,,0.00,WUHU21623XXSP,2013-04-06 11:48:00,
2013-04-06 06:53:00,35.2,19.4,29.92,SE,135,9.4,9.4,52,0.00,,,0.00,WUHU21623XXSP,2013-04-06 11:53:00,
2013-04-06 06:58:00,35.4,19.5,29.92,SSE,157,13.9,13.9,52,0.00,,,0.00,WUHU21623XXSP,2013-04-06 11:58:00,
2013-04-06 07:03:00,35.8,19.9,29.91,SE,135,5.6,13.9,52,0.00,,,0.00,WUHU21623XXSP,2013-04-06 12:03:00,
2013-04-06 07:08:00,35.8,19.9,29.91,ESE,112,8.1,15.2,52,0.00,,,0.00,WUHU21623XXSP,2013-04-06 12:08:00,
2013-04-06 07:13:00,36.0,20.5,29.92,SSW,202,4.7,15.2,53,0.00,,,0.00,WUHU21623XXSP,2013-04-06 12:13:00,
2013-04-06 07:18:00,36.0,20.0,29.91,SE,135,9.8,9.8,52,0.00,,,0.00,WUHU21623XXSP,2013-04-06 12:18:00,
2013-04-06 07:23:00,36.1,20.2,29.91,SE,135,9.4,9.8,52,0.00,,,0.00,WUHU21623XXSP,2013-04-06 12:23:00,
2013-04-06 07:28:00,36.3,20.8,29.91,SSE,157,5.4,9.8,53,0.00,,,0.00,WUHU21623XXSP,2013-04-06 12:28:00,
2013-04-06 07:33:00,36.3,20.8,29.91,SSE,157,5.6,8.3,53,0.00,,,0.00,WUHU21623XXSP,2013-04-06 12:33:00,
2013-04-06 07:38:00,36.5,21.0,29.90,SE,135,5.4,7.8,53,0.00,,,0.00,WUHU21623XXSP,2013-04-06 12:38:00,
2013-04-06 07:43:00,36.5,21.1,29.90,ESE,112,8.1,8.1,53,0.00,,,0.00,WUHU21623XXSP,2013-04-06 12:43:00,
2013-04-06 07:48:00,37.0,21.5,29.90,SE,135,4.7,8.1,53,0.00,,,0.00,WUHU21623XXSP,2013-04-06 12:48:00,
2013-04-06 07:53:00,37.2,21.6,29.90,South,180,4.9,9.2,53,0.00,,,0.00,WUHU21623XXSP,2013-04-06 12:53:00,
2013-04-06 07:58:00,37.4,21.8,29.90,SE,135,4.3,9.2,53,0.00,,,0.00,WUHU21623XXSP,2013-04-06 12:58:00,
2013-04-06 08:03:00,37.6,21.9,29.89,SSE,157,5.8,11.4,53,0.00,,,0.00,WUHU21623XXSP,2013-04-06 13:03:00,
2013-04-06 08:08:00,37.8,22.1,29.88,SE,135,5.6,11.4,53,0.00,,,0.00,WUHU21623XXSP,2013-04-06 13:08:00,
2013-04-06 08:13:00,37.9,22.3,29.88,SE,135,5.1,6.9,53,0.00,,,0.00,WUHU21623XXSP,2013-04-06 13:13:00,
2013-04-06 08:18:00,38.5,22.7,29.87,SE,135,6.7,8.3,53,0.00,,,0.00,WUHU21623XXSP,2013-04-06 13:18:00,
2013-04-06 08:23:00,38.8,22.6,29.86,SE,135,14.5,14.5,52,0.00,,,0.00,WUHU21623XXSP,2013-04-06 13:23:00,
2013-04-06 08:28:00,39.4,23.1,29.86,SSE,157,6.5,14.5,52,0.00,,,0.00,WUHU21623XXSP,2013-04-06 13:28:00,
2013-04-06 08:33:00,39.6,23.3,29.86,SE,135,4.7,12.1,52,0.00,,,0.00,WUHU21623XXSP,2013-04-06 13:33:00,
2013-04-06 08:38:00,39.7,23.4,29.86,SSE,157,5.1,12.1,52,0.00,,,0.00,WUHU21623XXSP,2013-04-06 13:38:00,
2013-04-06 08:43:00,39.9,23.6,29.86,SSE,157,4.3,6.0,52,0.00,,,0.00,WUHU21623XXSP,2013-04-06 13:43:00,
2013-04-06 08:48:00,40.1,23.8,29.86,South,180,7.6,7.6,52,0.00,,,0.00,WUHU21623XXSP,2013-04-06 13:48:00,
2013-04-06 08:53:00,40.5,24.1,29.86,South,180,3.1,7.6,52,0.00,,,0.00,WUHU21623XXSP,2013-04-06 13:53:00,
2013-04-06 08:59:00,41.2,24.8,29.85,SE,135,5.4,6.3,52,0.00,,,0.00,WUHU21623XXSP,2013-04-06 13:59:00,
2013-04-06 09:04:00,41.5,24.7,29.84,ESE,112,5.1,6.3,51,0.00,,,0.00,WUHU21623XXSP,2013-04-06 14:04:00,
2013-04-06 09:09:00,42.1,24.8,29.84,SSE,157,6.3,6.3,50,0.00,,,0.00,WUHU21623XXSP,2013-04-06 14:09:00,
2013-04-06 09:14:00,42.3,25.0,29.84,SE,135,1.3,6.3,50,0.00,,,0.00,WUHU21623XXSP,2013-04-06 14:14:00,
2013-04-06 09:19:00,42.4,25.2,29.84,ESE,112,3.4,5.4,50,0.00,,,0.00,WUHU21623XXSP,2013-04-06 14:19:00,
2013-04-06 09:24:00,43.0,26.1,29.84,SE,135,6.0,8.3,51,0.00,,,0.00,WUHU21623XXSP,2013-04-06 14:24:00,
2013-04-06 09:29:00,43.2,26.3,29.83,ESE,112,5.8,8.3,51,0.00,,,0.00,WUHU21623XXSP,2013-04-06 14:29:00,
2013-04-06 09:34:00,43.7,26.3,29.83,ESE,112,5.6,8.5,50,0.00,,,0.00,WUHU21623XXSP,2013-04-06 14:34:00,
2013-04-06 09:39:00,44.1,26.7,29.84,SSE,157,6.5,8.5,50,0.00,,,0.00,WUHU21623XXSP,2013-04-06 14:39:00,
2013-04-06 09:44:00,44.1,26.7,29.83,SSE,157,9.6,9.6,50,0.00,,,0.00,WUHU21623XXSP,2013-04-06 14:44:00,
2013-04-06 09:49:00,44.4,27.0,29.83,South,180,5.6,9.6,50,0.00,,,0.00,WUHU21623XXSP,2013-04-06 14:49:00,
2013-04-06 09:55:00,44.8,27.3,29.83,SSE,157,1.8,6.5,50,0.00,,,0.00,WUHU21623XXSP,2013-04-06 14:55:00,
2013-04-06 10:00:00,44.8,27.3,29.82,SSE,157,6.7,6.7,50,0.00,,,0.00,WUHU21623XXSP,2013-04-06 15:00:00,
2013-04-06 10:05:00,45.0,27.5,29.82,SSE,157,4.0,6.7,50,0.00,,,0.00,WUHU21623XXSP,2013-04-06 15:05:00,
2013-04-06 10:10:00,45.1,27.6,29.81,South,180,6.5,6.5,50,0.00,,,0.00,WUHU21623XXSP,2013-04-06 15:10:00,
2013-04-06 10:15:00,45.7,28.1,29.81,SSE,157,4.9,6.5,50,0.00,,,0.00,WUHU21623XXSP,2013-04-06 15:15:00,
2013-04-06 10:20:00,46.0,28.4,29.81,SSE,157,7.4,7.4,50,0.00,,,0.00,WUHU21623XXSP,2013-04-06 15:20:00,
2013-04-06 10:25:00,46.2,28.6,29.81,SE,135,6.3,7.4,50,0.00,,,0.00,WUHU21623XXSP,2013-04-06 15:25:00,
2013-04-06 10:30:00,46.9,29.2,29.80,SSE,157,8.1,8.1,50,0.00,,,0.00,WUHU21623XXSP,2013-04-06 15:30:00,
2013-04-06 10:35:00,47.3,29.6,29.79,SSE,157,9.6,9.6,50,0.00,,,0.00,WUHU21623XXSP,2013-04-06 15:35:00,
2013-04-06 10:40:00,48.0,29.7,29.79,SE,135,5.6,9.6,49,0.00,,,0.00,WUHU21623XXSP,2013-04-06 15:40:00,
2013-04-06 10:45:00,48.6,29.6,29.78,SSE,157,5.8,7.8,48,0.00,,,0.00,WUHU21623XXSP,2013-04-06 15:45:00,
2013-04-06 10:50:00,48.9,30.0,29.78,SE,135,3.1,8.5,48,0.00,,,0.00,WUHU21623XXSP,2013-04-06 15:50:00,
2013-04-06 10:55:00,49.6,30.1,29.76,SSE,157,4.7,10.5,47,0.00,,,0.00,WUHU21623XXSP,2013-04-06 15:55:00,
2013-04-06 11:01:00,50.2,30.7,29.76,SE,135,5.1,10.5,47,0.00,,,0.00,WUHU21623XXSP,2013-04-06 16:01:00,
2013-04-06 11:06:00,50.4,30.8,29.75,SSE,157,5.8,8.7,47,0.00,,,0.00,WUHU21623XXSP,2013-04-06 16:06:00,
2013-04-06 11:11:00,51.1,30.9,29.75,South,180,5.6,8.7,46,0.00,,,0.00,WUHU21623XXSP,2013-04-06 16:11:00,
2013-04-06 11:16:00,51.4,30.7,29.75,SE,135,4.9,8.7,45,0.00,,,0.00,WUHU21623XXSP,2013-04-06 16:16:00,
2013-04-06 11:21:00,52.2,31.3,29.74,SSE,157,15.2,15.2,45,0.00,,,0.00,WUHU21623XXSP,2013-04-06 16:21:00,
2013-04-06 11:27:00,52.7,31.8,29.74,SSE,157,11.6,15.2,45,0.00,,,0.00,WUHU21623XXSP,2013-04-06 16:27:00,
2013-04-06 11:32:00,53.1,31.6,29.74,South,180,5.1,11.6,44,0.00,,,0.00,WUHU21623XXSP,2013-04-06 16:32:00,
2013-04-06 11:37:00,54.0,32.4,29.73,SE,135,2.9,16.1,44,0.00,,,0.00,WUHU21623XXSP,2013-04-06 16:37:00,
2013-04-06 11:42:00,54.7,33.0,29.73,SSE,157,11.6,16.1,44,0.00,,,0.00,WUHU21623XXSP,2013-04-06 16:42:00,
2013-04-06 11:47:00,55.4,33.7,29.73,SSE,157,11.0,11.6,44,0.00,,,0.00,WUHU21623XXSP,2013-04-06 16:47:00,
2013-04-06 11:52:00,56.8,34.5,29.72,SSE,157,9.2,11.0,43,0.00,,,0.00,WUHU21623XXSP,2013-04-06 16:52:00,
2013-04-06 11:57:00,58.5,35.4,29.72,South,180,6.9,10.5,42,0.00,,,0.00,WUHU21623XXSP,2013-04-06 16:57:00,
2013-04-06 12:02:00,61.0,35.7,29.72,SSW,202,10.3,10.3,37,0.00,,,0.00,WUHU21623XXSP,2013-04-06 17:02:00,
2013-04-06 12:07:00,61.5,32.6,29.72,South,180,8.1,10.3,34,0.00,,,0.00,WUHU21623XXSP,2013-04-06 17:07:00,
2013-04-06 12:12:00,61.7,32.8,29.71,SSE,157,7.4,8.1,34,0.00,,,0.00,WUHU21623XXSP,2013-04-06 17:12:00,
2013-04-06 12:17:00,62.2,33.3,29.71,SSW,202,2.2,7.4,34,0.00,,,0.00,WUHU21623XXSP,2013-04-06 17:17:00,
2013-04-06 12:22:00,63.0,33.9,29.70,South,180,8.9,9.2,34,0.00,,,0.00,WUHU21623XXSP,2013-04-06 17:22:00,
2013-04-06 12:27:00,63.9,33.3,29.70,South,180,15.4,15.4,32,0.00,,,0.00,WUHU21623XXSP,2013-04-06 17:27:00,
2013-04-06 12:32:00,64.6,32.5,29.70,South,180,9.6,15.4,30,0.00,,,0.00,WUHU21623XXSP,2013-04-06 17:32:00,
2013-04-06 12:37:00,65.3,32.2,29.70,SW,225,3.6,18.6,29,0.00,,,0.00,WUHU21623XXSP,2013-04-06 17:37:00,
2013-04-06 12:42:00,65.7,30.5,29.70,South,180,10.5,18.6,27,0.00,,,0.00,WUHU21623XXSP,2013-04-06 17:42:00,
2013-04-06 12:47:00,65.1,31.0,29.70,SE,135,13.9,15.9,28,0.00,,,0.00,WUHU21623XXSP,2013-04-06 17:47:00,
2013-04-06 12:52:00,64.8,29.7,29.70,SSW,202,20.1,20.1,27,0.00,,,0.00,WUHU21623XXSP,2013-04-06 17:52:00,
2013-04-06 12:57:00,64.2,30.2,29.70,South,180,8.9,20.1,28,0.00,,,0.00,WUHU21623XXSP,2013-04-06 17:57:00,
2013-04-06 13:02:00,64.4,32.4,29.70,SSW,202,6.3,14.5,30,0.00,,,0.00,WUHU21623XXSP,2013-04-06 18:02:00,
2013-04-06 13:07:00,64.6,32.5,29.70,SSE,157,6.7,6.9,30,0.00,,,0.00,WUHU21623XXSP,2013-04-06 18:07:00,
2013-04-06 13:12:00,64.9,31.8,29.69,SSW,202,12.5,12.5,29,0.00,,,0.00,WUHU21623XXSP,2013-04-06 18:12:00,
2013-04-06 13:17:00,65.1,32.0,29.69,SSW,202,9.2,12.5,29,0.00,,,0.00,WUHU21623XXSP,2013-04-06 18:17:00,
2013-04-06 13:22:00,65.3,32.2,29.69,SE,135,7.6,9.2,29,0.00,,,0.00,WUHU21623XXSP,2013-04-06 18:22:00,
2013-04-06 13:28:00,65.1,33.0,29.68,South,180,14.5,14.5,30,0.00,,,0.00,WUHU21623XXSP,2013-04-06 18:28:00,
2013-04-06 13:33:00,64.8,31.7,29.68,SSW,202,8.1,14.5,29,0.00,,,0.00,WUHU21623XXSP,2013-04-06 18:33:00,
2013-04-06 13:38:00,64.6,33.2,29.68,South,180,5.4,8.1,31,0.00,,,0.00,WUHU21623XXSP,2013-04-06 18:38:00,
2013-04-06 13:43:00,64.6,33.2,29.67,South,180,6.5,7.8,31,0.00,,,0.00,WUHU21623XXSP,2013-04-06 18:43:00,
2013-04-06 13:48:00,64.6,33.2,29.67,SSE,157,8.9,12.5,31,0.00,,,0.00,WUHU21623XXSP,2013-04-06 18:48:00,
2013-04-06 13:53:00,64.0,32.8,29.66,SW,225,8.5,12.5,31,0.00,,,0.00,WUHU21623XXSP,2013-04-06 18:53:00,
2013-04-06 13:58:00,64.0,33.5,29.66,South,180,3.1,12.5,32,0.00,,,0.00,WUHU21623XXSP,2013-04-06 18:58:00,
2013-04-06 14:03:00,64.0,32.8,29.65,South,180,7.4,7.8,31,0.00,,,0.00,WUHU21623XXSP,2013-04-06 19:03:00,
2013-04-06 14:08:00,64.0,32.8,29.65,SSE,157,9.6,9.6,31,0.00,,,0.00,WUHU21623XXSP,2013-04-06 19:08:00,
2013-04-06 14:13:00,63.9,32.6,29.64,South,180,6.0,10.3,31,0.00,,,0.00,WUHU21623XXSP,2013-04-06 19:13:00,
2013-04-06 14:18:00,63.9,32.6,29.64,SSW,202,8.1,10.3,31,0.00,,,0.00,WUHU21623XXSP,2013-04-06 19:18:00,
2013-04-06 14:23:00,64.0,32.0,29.65,South,180,4.5,9.2,30,0.00,,,0.00,WUHU21623XXSP,2013-04-06 19:23:00,
2013-04-06 14:28:00,64.0,32.0,29.64,SSW,202,11.4,11.4,30,0.00,,,0.00,WUHU21623XXSP,2013-04-06 19:28:00,
2013-04-06 14:33:00,63.9,31.9,29.63,SSW,202,11.6,11.6,30,0.00,,,0.00,WUHU21623XXSP,2013-04-06 19:33:00,
2013-04-06 14:38:00,64.2,32.9,29.63,SSE,157,9.4,11.6,31,0.00,,,0.00,WUHU21623XXSP,2013-04-06 19:38:00,
2013-04-06 14:43:00,64.2,32.2,29.63,SSE,157,5.6,10.7,30,0.00,,,0.00,WUHU21623XXSP,2013-04-06 19:43:00,
2013-04-06 14:48:00,64.4,32.4,29.62,SSW,202,17.4,17.4,30,0.00,,,0.00,WUHU21623XXSP,2013-04-06 19:48:00,
2013-04-06 14:53:00,64.0,32.8,29.61,SSW,202,8.9,17.4,31,0.00,,,0.00,WUHU21623XXSP,2013-04-06 19:53:00,
2013-04-06 14:58:00,64.0,32.8,29.62,South,180,6.7,10.5,31,0.00,,,0.00,WUHU21623XXSP,2013-04-06 19:58:00,
2013-04-06 15:03:00,63.7,32.4,29.62,SSE,157,4.9,15.7,31,0.00,,,0.00,WUHU21623XXSP,2013-04-06 20:03:00,
2013-04-06 15:08:00,63.9,32.6,29.62,SSW,202,5.1,15.7,31,0.00,,,0.00,WUHU21623XXSP,2013-04-06 20:08:00,
2013-04-06 15:13:00,63.9,33.3,29.62,South,180,4.9,6.9,32,0.00,,,0.00,WUHU21623XXSP,2013-04-06 20:13:00,
2013-04-06 15:18:00,63.9,33.3,29.61,SSW,202,6.7,6.7,32,0.00,,,0.00,WUHU21623XXSP,2013-04-06 20:18:00,
2013-04-06 15:23:00,63.9,32.6,29.61,SSE,157,8.3,8.3,31,0.00,,,0.00,WUHU21623XXSP,2013-04-06 20:23:00,
2013-04-06 15:28:00,64.0,32.8,29.61,SW,225,5.4,8.3,31,0.00,,,0.00,WUHU21623XXSP,2013-04-06 20:28:00,
2013-04-06 15:33:00,64.0,32.8,29.61,SE,135,10.7,10.7,31,0.00,,,0.00,WUHU21623XXSP,2013-04-06 20:33:00,
2013-04-06 15:38:00,64.2,32.9,29.60,SSW,202,4.3,17.4,31,0.00,,,0.00,WUHU21623XXSP,2013-04-06 20:38:00,
2013-04-06 15:43:00,64.6,33.2,29.60,SSW,202,8.1,17.4,31,0.00,,,0.00,WUHU21623XXSP,2013-04-06 20:43:00,
2013-04-06 15:48:00,66.6,32.3,29.60,SSE,157,7.4,16.3,28,0.00,,,0.00,WUHU21623XXSP,2013-04-06 20:48:00,
2013-04-06 15:53:00,66.9,31.6,29.60,South,180,3.6,16.3,27,0.00,,,0.00,WUHU21623XXSP,2013-04-06 20:53:00,
2013-04-06 15:58:00,67.1,30.7,29.60,South,180,7.2,7.4,26,0.00,,,0.00,WUHU21623XXSP,2013-04-06 20:58:00,
2013-04-06 16:03:00,67.3,30.8,29.60,South,180,8.3,9.8,26,0.00,,,0.00,WUHU21623XXSP,2013-04-06 21:03:00,
2013-04-06 16:08:00,67.1,31.7,29.59,SW,225,9.2,9.8,27,0.00,,,0.00,WUHU21623XXSP,2013-04-06 21:08:00,
2013-04-06 16:13:00,66.9,30.5,29.60,South,180,7.8,10.5,26,0.00,,,0.00,WUHU21623XXSP,2013-04-06 21:13:00,
2013-04-06 16:18:00,66.9,32.5,29.60,SSW,202,7.4,10.5,28,0.00,,,0.00,WUHU21623XXSP,2013-04-06 21:18:00,
2013-04-06 16:23:00,67.1,33.7,29.59,SSW,202,7.6,9.4,29,0.00,,,0.00,WUHU21623XXSP,2013-04-06 21:23:00,
2013-04-06 16:28:00,67.1,33.7,29.60,SW,225,6.5,9.4,29,0.00,,,0.00,WUHU21623XXSP,2013-04-06 21:28:00,
2013-04-06 16:33:00,67.5,35.0,29.59,SW,225,3.4,6.5,30,0.00,,,0.00,WUHU21623XXSP,2013-04-06 21:33:00,
2013-04-06 16:38:00,67.8,34.3,29.59,SSW,202,6.3,11.6,29,0.00,,,0.00,WUHU21623XXSP,2013-04-06 21:38:00,
2013-04-06 16:43:00,68.0,35.4,29.60,SSE,157,5.6,11.6,30,0.00,,,0.00,WUHU21623XXSP,2013-04-06 21:43:00,
2013-04-06 16:48:00,67.8,35.3,29.59,SSE,157,5.6,7.2,30,0.00,,,0.00,WUHU21623XXSP,2013-04-06 21:48:00,
2013-04-06 16:53:00,67.6,36.6,29.59,West,270,4.9,7.2,32,0.00,,,0.00,WUHU21623XXSP,2013-04-06 21:53:00,
2013-04-06 16:58:00,67.1,36.2,29.60,WSW,247,5.1,6.9,32,0.00,,,0.00,WUHU21623XXSP,2013-04-06 21:58:00,
2013-04-06 17:03:00,66.4,37.0,29.60,SW,225,11.0,11.0,34,0.00,,,0.00,WUHU21623XXSP,2013-04-06 22:03:00,
2013-04-06 17:08:00,65.8,36.5,29.60,SSW,202,3.8,11.0,34,0.00,,,0.00,WUHU21623XXSP,2013-04-06 22:08:00,
2013-04-06 17:13:00,65.3,36.0,29.59,SW,225,5.6,10.1,34,0.00,,,0.00,WUHU21623XXSP,2013-04-06 22:13:00,
2013-04-06 17:18:00,64.9,36.4,29.59,SW,225,11.0,11.0,35,0.00,,,0.00,WUHU21623XXSP,2013-04-06 22:18:00,
2013-04-06 17:23:00,64.8,37.7,29.59,SW,225,0.4,11.0,37,0.00,,,0.00,WUHU21623XXSP,2013-04-06 22:23:00,
2013-04-06 17:28:00,63.9,39.1,29.59,WSW,247,2.7,5.8,40,0.00,,,0.00,WUHU21623XXSP,2013-04-06 22:28:00,
2013-04-06 17:33:00,63.1,39.6,29.59,SW,225,6.5,6.5,42,0.00,,,0.00,WUHU21623XXSP,2013-04-06 22:33:00,
2013-04-06 17:38:00,62.4,39.5,29.60,SSW,202,1.6,6.5,43,0.00,,,0.00,WUHU21623XXSP,2013-04-06 22:38:00,
2013-04-06 17:43:00,61.5,39.8,29.60,SSW,202,5.1,5.1,45,0.00,,,0.00,WUHU21623XXSP,2013-04-06 22:43:00,
2013-04-06 17:48:00,61.2,40.1,29.60,SW,225,6.3,6.3,46,0.00,,,0.00,WUHU21623XXSP,2013-04-06 22:48:00,
2013-04-06 17:53:00,61.0,39.9,29.60,SSW,202,7.4,7.4,46,0.00,,,0.00,WUHU21623XXSP,2013-04-06 22:53:00,
2013-04-06 17:58:00,60.8,40.9,29.60,SW,225,5.1,9.2,48,0.00,,,0.00,WUHU21623XXSP,2013-04-06 22:58:00,
2013-04-06 18:03:00,60.3,41.0,29.60,SW,225,5.6,9.2,49,0.00,,,0.00,WUHU21623XXSP,2013-04-06 23:03:00,
2013-04-06 18:08:00,60.1,41.9,29.60,WSW,247,1.8,6.3,51,0.00,,,0.00,WUHU21623XXSP,2013-04-06 23:08:00,
2013-04-06 18:13:00,59.2,43.0,29.60,SW,225,4.7,5.8,55,0.00,,,0.00,WUHU21623XXSP,2013-04-06 23:13:00,
2013-04-06 18:18:00,58.6,42.5,29.60,SSW,202,4.9,5.4,55,0.00,,,0.00,WUHU21623XXSP,2013-04-06 23:18:00,
2013-04-06 18:23:00,58.1,42.9,29.60,WSW,247,2.2,5.1,57,0.00,,,0.00,WUHU21623XXSP,2013-04-06 23:23:00,
2013-04-06 18:28:00,57.9,43.2,29.60,WSW,247,0.9,5.1,58,0.00,,,0.00,WUHU21623XXSP,2013-04-06 23:28:00,
2013-04-06 18:33:00,57.9,43.2,29.59,SSE,157,4.0,4.5,58,0.00,,,0.00,WUHU21623XXSP,2013-04-06 23:33:00,
2013-04-06 18:38:00,57.9,43.2,29.59,South,180,1.1,4.0,58,0.00,,,0.00,WUHU21623XXSP,2013-04-06 23:38:00,
2013-04-06 18:43:00,57.9,43.2,29.59,South,180,2.0,4.0,58,0.00,,,0.00,WUHU21623XXSP,2013-04-06 23:43:00,
2013-04-06 18:48:00,57.9,43.2,29.59,South,180,1.6,4.0,58,0.00,,,0.00,WUHU21623XXSP,2013-04-06 23:48:00,
2013-04-06 18:53:00,57.7,43.1,29.59,SSW,202,1.3,1.6,58,0.00,,,0.00,WUHU21623XXSP,2013-04-06 23:53:00,
2013-04-06 18:58:00,57.6,42.9,29.59,SSW,202,0.4,6.3,58,0.00,,,0.00,WUHU21623XXSP,2013-04-06 23:58:00,
2013-04-06 19:03:00,57.4,42.7,29.59,SSW,202,0.4,6.3,58,0.00,,,0.00,WUHU21623XXSP,2013-04-07 00:03:00,
2013-04-06 19:08:00,57.4,43.2,29.59,South,180,0.0,3.1,59,0.00,,,0.00,WUHU21623XXSP,2013-04-07 00:08:00,
2013-04-06 19:13:00,57.0,42.9,29.59,SSW,202,0.0,0.9,59,0.00,,,0.00,WUHU21623XXSP,2013-04-07 00:13:00,
2013-04-06 19:18:00,57.2,43.1,29.58,SSW,202,2.9,2.9,59,0.00,,,0.00,WUHU21623XXSP,2013-04-07 00:18:00,
2013-04-06 19:23:00,57.0,42.9,29.59,SSW,202,2.2,2.9,59,0.00,,,0.00,WUHU21623XXSP,2013-04-07 00:23:00,
2013-04-06 19:28:00,57.0,42.9,29.58,SSW,202,0.0,2.9,59,0.00,,,0.00,WUHU21623XXSP,2013-04-07 00:28:00,
2013-04-06 19:33:00,56.8,42.7,29.59,SSW,202,2.0,2.0,59,0.00,,,0.00,WUHU21623XXSP,2013-04-07 00:33:00,
2013-04-06 19:39:00,56.8,43.2,29.58,South,180,0.0,2.0,60,0.00,,,0.00,WUHU21623XXSP,2013-04-07 00:39:00,
2013-04-06 19:44:00,56.7,43.0,29.58,SSE,157,0.0,0.0,60,0.00,,,0.00,WUHU21623XXSP,2013-04-07 00:44:00,
2013-04-06 19:49:00,56.7,43.0,29.58,SSE,157,0.2,0.2,60,0.00,,,0.00,WUHU21623XXSP,2013-04-07 00:49:00,
2013-04-06 19:54:00,56.1,42.8,29.58,SSW,202,0.0,0.4,61,0.00,,,0.00,WUHU21623XXSP,2013-04-07 00:54:00,
2013-04-06 19:59:00,56.1,43.3,29.58,SSW,202,0.0,0.4,62,0.00,,,0.00,WUHU21623XXSP,2013-04-07 00:59:00,
2013-04-06 20:04:00,56.1,43.3,29.58,South,180,1.1,1.1,62,0.00,,,0.00,WUHU21623XXSP,2013-04-07 01:04:00,
2013-04-06 20:09:00,56.1,43.3,29.58,South,180,1.3,1.3,62,0.00,,,0.00,WUHU21623XXSP,2013-04-07 01:09:00,
2013-04-06 20:14:00,56.1,43.3,29.58,SSW,202,1.3,4.5,62,0.00,,,0.00,WUHU21623XXSP,2013-04-07 01:14:00,
2013-04-06 20:19:00,56.3,43.4,29.58,SW,225,2.2,4.5,62,0.00,,,0.00,WUHU21623XXSP,2013-04-07 01:19:00,
2013-04-06 20:24:00,56.3,43.0,29.58,SSE,157,1.8,3.4,61,0.00,,,0.00,WUHU21623XXSP,2013-04-07 01:24:00,
2013-04-06 20:29:00,56.7,43.0,29.58,SW,225,1.8,3.4,60,0.00,,,0.00,WUHU21623XXSP,2013-04-07 01:29:00,
2013-04-06 20:34:00,56.8,42.7,29.59,South,180,6.3,6.3,59,0.00,,,0.00,WUHU21623XXSP,2013-04-07 01:34:00,
2013-04-06 20:39:00,57.4,42.7,29.59,SW,225,2.9,6.3,58,0.00,,,0.00,WUHU21623XXSP,2013-04-07 01:39:00,
2013-04-06 20:44:00,57.6,43.8,29.60,SSW,202,2.2,8.3,60,0.00,,,0.00,WUHU21623XXSP,2013-04-07 01:44:00,
2013-04-06 20:49:00,57.4,44.9,29.60,SW,225,7.6,8.3,63,0.00,,,0.00,WUHU21623XXSP,2013-04-07 01:49:00,
2013-04-06 20:54:00,57.2,45.5,29.59,West,270,5.6,7.6,65,0.00,,,0.00,WUHU21623XXSP,2013-04-07 01:54:00,
2013-04-06 20:59:00,56.7,45.0,29.59,SSW,202,4.3,5.6,65,0.00,,,0.00,WUHU21623XXSP,2013-04-07 01:59:00,
2013-04-06 21:04:00,56.7,44.6,29.58,SW,225,3.6,4.3,64,0.00,,,0.00,WUHU21623XXSP,2013-04-07 02:04:00,
2013-04-06 21:09:00,56.7,45.0,29.59,SSW,202,3.6,5.8,65,0.00,,,0.00,WUHU21623XXSP,2013-04-07 02:09:00,
2013-04-06 21:14:00,56.1,45.3,29.60,SW,225,2.9,6.7,67,0.00,,,0.00,WUHU21623XXSP,2013-04-07 02:14:00,
2013-04-06 21:20:00,55.6,45.6,29.60,SW,225,2.2,6.7,69,0.00,,,0.00,WUHU21623XXSP,2013-04-07 02:20:00,
2013-04-06 21:25:00,55.0,45.5,29.60,SW,225,0.0,3.4,70,0.00,,,0.00,WUHU21623XXSP,2013-04-07 02:25:00,
2013-04-06 21:30:00,54.9,45.3,29.60,SSW,202,2.0,3.4,70,0.00,,,0.00,WUHU21623XXSP,2013-04-07 02:30:00,
2013-04-06 21:35:00,54.9,45.7,29.60,SSW,202,0.7,2.0,71,0.00,,,0.00,WUHU21623XXSP,2013-04-07 02:35:00,
2013-04-06 21:40:00,54.5,45.3,29.60,SSW,202,0.7,0.9,71,0.00,,,0.00,WUHU21623XXSP,2013-04-07 02:40:00,
2013-04-06 21:45:00,54.5,45.3,29.60,SW,225,4.3,4.3,71,0.00,,,0.00,WUHU21623XXSP,2013-04-07 02:45:00,
2013-04-06 21:50:00,54.3,45.5,29.60,WSW,247,2.9,4.3,72,0.00,,,0.00,WUHU21623XXSP,2013-04-07 02:50:00,
2013-04-06 21:55:00,54.3,45.8,29.60,SW,225,4.3,4.3,73,0.00,,,0.00,WUHU21623XXSP,2013-04-07 02:55:00,
2013-04-06 22:00:00,54.3,46.2,29.60,WSW,247,5.8,5.8,74,0.00,,,0.00,WUHU21623XXSP,2013-04-07 03:00:00,
2013-04-06 22:05:00,54.3,46.2,29.60,WSW,247,3.6,5.8,74,0.00,,,0.00,WUHU21623XXSP,2013-04-07 03:05:00,
2013-04-06 22:10:00,54.1,46.0,29.60,SW,225,5.6,5.6,74,0.00,,,0.00,WUHU21623XXSP,2013-04-07 03:10:00,
2013-04-06 22:15:00,54.0,45.8,29.60,WSW,247,1.3,5.6,74,0.00,,,0.00,WUHU21623XXSP,2013-04-07 03:15:00,
2013-04-06 22:20:00,54.0,46.2,29.60,WSW,247,1.3,2.2,75,0.00,,,0.00,WUHU21623XXSP,2013-04-07 03:20:00,
2013-04-06 22:25:00,54.0,46.2,29.60,SW,225,2.7,4.3,75,0.00,,,0.00,WUHU21623XXSP,2013-04-07 03:25:00,
2013-04-06 22:30:00,53.8,46.0,29.61,SW,225,0.0,4.3,75,0.00,,,0.00,WUHU21623XXSP,2013-04-07 03:30:00,
2013-04-06 22:35:00,53.6,45.9,29.61,WSW,247,0.0,2.2,75,0.00,,,0.00,WUHU21623XXSP,2013-04-07 03:35:00,
2013-04-06 22:40:00,53.4,45.7,29.62,West,270,0.7,4.0,75,0.00,,,0.00,WUHU21623XXSP,2013-04-07 03:40:00,
2013-04-06 22:45:00,53.2,45.5,29.62,WNW,292,4.0,4.0,75,0.00,,,0.00,WUHU21623XXSP,2013-04-07 03:45:00,
2013-04-06 22:50:00,53.2,45.5,29.62,West,270,6.3,6.3,75,0.00,,,0.00,WUHU21623XXSP,2013-04-07 03:50:00,
2013-04-06 22:55:00,53.1,45.0,29.62,WSW,247,4.3,6.3,74,0.00,,,0.00,WUHU21623XXSP,2013-04-07 03:55:00,
2013-04-06 23:00:00,52.7,44.3,29.63,WSW,247,4.9,8.1,73,0.00,,,0.00,WUHU21623XXSP,2013-04-07 04:00:00,
2013-04-06 23:01:00,52.5,44.1,29.63,NW,315,6.3,8.1,73,0.00,,,0.00,WUHU21623XXSP,2013-04-07 04:01:00,
2013-04-06 23:06:00,52.5,44.1,29.63,NNW,337,6.3,8.3,73,0.00,,,0.00,WUHU21623XXSP,2013-04-07 04:06:00,
2013-04-06 23:11:00,52.2,43.4,29.64,WSW,247,6.3,8.3,72,0.00,,,0.00,WUHU21623XXSP,2013-04-07 04:11:00,
2013-04-06 23:16:00,51.8,43.1,29.64,WNW,292,5.4,6.9,72,0.00,,,0.00,WUHU21623XXSP,2013-04-07 04:16:00,
2013-04-06 23:22:00,51.3,42.6,29.64,SW,225,6.0,6.3,72,0.00,,,0.00,WUHU21623XXSP,2013-04-07 04:22:00,
2013-04-06 23:27:00,51.1,42.7,29.64,WSW,247,4.0,7.4,73,0.00,,,0.00,WUHU21623XXSP,2013-04-07 04:27:00,
2013-04-06 23:32:00,50.9,42.6,29.65,WSW,247,6.0,7.4,73,0.00,,,0.00,WUHU21623XXSP,2013-04-07 04:32:00,
2013-04-06 23:37:00,50.7,42.4,29.65,WSW,247,2.5,7.8,73,0.00,,,0.00,WUHU21623XXSP,2013-04-07 04:37:00,
2013-04-06 23:42:00,50.7,42.7,29.65,West,270,6.9,7.8,74,0.00,,,0.00,WUHU21623XXSP,2013-04-07 04:42:00,
2013-04-06 23:47:00,50.5,42.5,29.65,NW,315,3.8,6.9,74,0.00,,,0.00,WUHU21623XXSP,2013-04-07 04:47:00,
2013-04-06 23:52:00,50.4,42.4,29.65,NW,315,7.4,7.4,74,0.00,,,0.00,WUHU21623XXSP,2013-04-07 04:52:00,
2013-04-06 23:57:00,50.4,42.4,29.66,NNW,337,0.0,7.4,74,0.00,,,0.00,WUHU21623XXSP,2013-04-07 04:57:00,